Weather History for Fargo, ND

Change the Weather History Date:

Friday, June 6, 2014

  Actual Average Record
Temperature  
Mean Temperature 60 °F 64 °F  
Max Temperature 66 °F 75 °F 99 °F (1950)
Min Temperature 53 °F 52 °F 32 °F (1897)
Degree Days  
Heating Degree Days 5 4  
Month to date heating degree days 11 25  
Since 1 June heating degree days 11 25  
Since 1 July heating degree days 9660 8754  
Cooling Degree Days 0 2  
Month to date cooling degree days 12 12  
Year to date cooling degree days 91 43  
Since 1 June cooling degree days 12 12  
Growing Degree Days 10 (Base 50)    
Moisture  
Dew Point 48 °F    
Average Humidity 73    
Maximum Humidity 97    
Minimum Humidity 48    
Precipitation  
Precipitation 0.01 in 0.13 in 2.22 in (1941)
Month to date precipitation 0.63 0.73  
Year to date precipitation 7.65 7.54  
Snow  
Snow 0.00 in 0.00 in 0.00 in ()
Month to date snowfall 0.0 0.0  
Since 1 June snowfall 0.0 0.0  
Since 1 July snowfall 34.9 50.4  
Snow Depth 0.00 in    
Sea Level Pressure  
Sea Level Pressure 29.99 in    
Wind  
Wind Speed 11 mph (NW)    
Max Wind Speed 22 mph    
Max Gust Speed 27 mph    
Visibility 10 miles    
Events Rain    
T = Trace of Precipitation, MM = Missing Value Source: NWS Daily Summary

Daily Weather History Graph

Daily Weather History Graph

Search for Another Location

Airport:

Trip Planner

Search our weather history database for the weather conditions in past years. The results will help you decide how hot, cold, wet, or windy it might be!

Date:

Astronomy

Jun. 06, 2014 Rise Set
Actual Time 5:33 AM CDT 9:18 PM CDT
Civil Twilight 4:54 AM CDT 9:57 PM CDT
Nautical Twilight 4:02 AM CDT 10:50 PM CDT
Astronomical Twilight 2:48 AM CDT 12:05 AM CDT
Moon 2:14 PM CDT (6/6) 1:51 AM CDT (6/6)
Length of Visible Light 17h 02m
Length of Day
15h 44m
First Quarter, 58% of the Moon is Illuminated
Jun 6
First Quarter
Jun 12
Full
Jun 19
Last Quarter
Jun 27
New
Jul 5
First Quarter

Hourly Weather History & Observations

Time (CDT) Temp. Dew Point Humidity Pressure Visibility Wind Dir Wind Speed Gust Speed Precip Events Conditions
12:53 AM 62.1 °F 60.1 °F 93% 29.82 in 10.0 mi WSW 3.5 mph - N/A   Clear
1:53 AM 60.1 °F 59.0 °F 96% 29.82 in 6.0 mi WNW 3.5 mph - N/A   Clear
2:53 AM 60.1 °F 55.0 °F 83% 29.84 in 10.0 mi WNW 9.2 mph - N/A   Clear
3:53 AM 61.0 °F 54.0 °F 78% 29.88 in 10.0 mi WNW 12.7 mph - N/A   Clear
4:53 AM 60.1 °F 53.1 °F 78% 29.91 in 10.0 mi NNW 18.4 mph 25.3 mph N/A   Clear
5:53 AM 57.0 °F 50.0 °F 77% 29.94 in 10.0 mi NNW 13.8 mph - N/A   Clear
6:53 AM 57.0 °F 46.9 °F 69% 29.97 in 10.0 mi NNW 12.7 mph - N/A   Clear
7:53 AM 59.0 °F 44.1 °F 58% 29.99 in 10.0 mi NNW 16.1 mph - N/A   Clear
8:53 AM 61.0 °F 42.1 °F 50% 30.01 in 10.0 mi North 18.4 mph - N/A   Clear
9:53 AM 60.8 °F 41.0 °F 48% 30.02 in 10.0 mi North 19.6 mph - N/A   Clear
10:53 AM 62.1 °F 43.0 °F 50% 30.02 in 10.0 mi NNW 18.4 mph 23.0 mph N/A   Clear
11:53 AM 62.1 °F 44.1 °F 52% 30.02 in 10.0 mi North 13.8 mph - N/A   Clear
12:53 PM 63.0 °F 46.0 °F 54% 30.04 in 10.0 mi NW 9.2 mph - N/A   Partly Cloudy
1:53 PM 63.0 °F 44.1 °F 50% 30.03 in 10.0 mi NNW 12.7 mph - N/A   Mostly Cloudy
2:53 PM 63.0 °F 45.0 °F 52% 30.02 in 10.0 mi North 13.8 mph - 0.00 in Rain Light Rain
3:53 PM 62.6 °F 44.6 °F 52% 30.04 in 10.0 mi NNW 11.5 mph - N/A   Overcast
4:53 PM 61.0 °F 45.0 °F 56% 30.04 in 10.0 mi NNW 3.5 mph - N/A   Overcast
5:53 PM 59.0 °F 48.0 °F 67% 30.08 in 9.0 mi SW 4.6 mph - 0.00 in Rain Light Rain
6:53 PM 60.1 °F 48.0 °F 64% 30.06 in 10.0 mi Calm Calm - 0.01 in   Overcast
7:53 PM 57.9 °F 46.0 °F 65% 30.05 in 10.0 mi North 11.5 mph - N/A   Overcast
8:53 PM 57.0 °F 46.0 °F 67% 30.07 in 10.0 mi NW 15.0 mph - 0.00 in   Overcast
9:53 PM 54.0 °F 46.0 °F 75% 30.08 in 10.0 mi NW 5.8 mph - 0.00 in   Overcast
10:53 PM 54.0 °F 48.0 °F 80% 30.08 in 10.0 mi WSW 4.6 mph - N/A   Overcast
11:53 PM 53.1 °F 46.9 °F 80% 30.09 in 10.0 mi West 5.8 mph - 0.00 in   Overcast